This is the latest recevied weather packets stored in our database for station/object KQ4PPF. If no packets are shown the sender has not sent any weather packets the latest 10 day(s).
| Time | Temp. | Humidity | Pressure | Rain* | Wind** | Luminosity | Snow |
|---|---|---|---|---|---|---|---|
| 1778188181 | 19.44° C | 61% | 1012.4 hPa | 0 mm | - | 101 W/m² | - |
| 1778187878 | 18.89° C | 66% | 1012.4 hPa | 0 mm | - | 101 W/m² | - |
| 1778187575 | 18.89° C | 69% | 1012.6 hPa | 0 mm | - | 106 W/m² | - |
| 1778187272 | 18.89° C | 70% | 1012.4 hPa | 0 mm | - | 71 W/m² | - |
| 1778186968 | 18.89° C | 68% | 1012.6 hPa | 0 mm | - | 108 W/m² | - |
| 1778186664 | 18.89° C | 69% | 1012.4 hPa | 0 mm | - | 88 W/m² | - |
| 1778186362 | 18.89° C | 67% | 1012.5 hPa | 0 mm | - | 123 W/m² | - |
| 1778186060 | 19.44° C | 69% | 1012 hPa | 0 mm | - | 127 W/m² | - |
| 1778185756 | 19.44° C | 68% | 1012.6 hPa | 0 mm | - | 83 W/m² | - |
| 1778185453 | 19.44° C | 68% | 1012.3 hPa | 0 mm | - | 150 W/m² | - |
| 1778185148 | 18.89° C | 69% | 1012.5 hPa | 0 mm | - | 121 W/m² | - |
| 1778184844 | 18.89° C | 69% | 1012.6 hPa | 0 mm | - | 143 W/m² | - |
| 1778184541 | 18.89° C | 69% | 1012.3 hPa | 0 mm | - | 114 W/m² | - |
| 1778184236 | 18.89° C | 70% | 1012.3 hPa | 0 mm | - | 150 W/m² | - |
| 1778183932 | 18.89° C | 68% | 1012.5 hPa | 0 mm | - | 128 W/m² | - |
| 1778183630 | 19.44° C | 69% | 1012.2 hPa | 0 mm | - | 148 W/m² | - |
| 1778183327 | 19.44° C | 68% | 1012.6 hPa | 0 mm | - | 160 W/m² | - |
| 1778183024 | 19.44° C | 68% | 1012.5 hPa | 0 mm | - | 166 W/m² | - |
| 1778182720 | 18.89° C | 70% | 1012.5 hPa | 0 mm | - | 147 W/m² | - |
| 1778182417 | 18.89° C | 72% | 1012.4 hPa | 0 mm | - | 88 W/m² | - |
| 1778182113 | 18.89° C | 70% | 1012.7 hPa | 0 mm | - | 84 W/m² | - |
| 1778181810 | 18.89° C | 70% | 1012.7 hPa | 0 mm | - | 85 W/m² | - |
| 1778181507 | 18.89° C | 70% | 1012.8 hPa | 0 mm | - | 100 W/m² | - |
| 1778181202 | 18.89° C | 72% | 1012.8 hPa | 0 mm | - | 144 W/m² | - |
| 1778180900 | 18.89° C | 71% | 1012.9 hPa | 0 mm | - | 158 W/m² | - |
* Rain latest hour (hover to see other rain measurements)
** Current wind speed in m/s (hover to see current wind gust speed)